Location: Wavehorne
(51.0500°N, 0.8333°E)
Time: 19:36:11
(UTC+00:00)

USA 267 - Pass Details

Date: 20 June 2021
Orbit: 1102 x 1106 km, 123.0° (Epoch: 28 July)

Event Time Altitude Azimuth Distance (km) Brightness Sun altitude
Exits shadow 01:19:18 18° 198° (SSW) 2,414 4.4 -13.4°
Maximum altitude 01:22:15 24° 233° (SW) 2,097 4.3 -13.2°
Drops below altitude 10° 01:27:23 10° 285° (WNW) 2,965 5.5 -13.0°
Sets 01:30:27 0° 299° (WNW) 3,928 6.3 -12.8°
